• în România
  • Lista ţărilor
  • Pe 7 zile
  • Temperatura apei
  • Hartă satelitară
  • Meteo pe hartă
  • Widget-uri
  • user-avatar
    Intrare

    Meteo pe oră la Barinas

    Astăzi, 15 Octombrie, Luni

    Timp Temperatura Precipitaţii Vânt Presiune Umiditate
    00:00 +26°C° 0.1 mm 1 m/s 744 mmHg 83%
    01:00 +25°C° 0 mm 1 m/s 744 mmHg 81%
    02:00 +25°C° 0.1 mm 1 m/s 743 mmHg 79%
    03:00 +25°C° 0.1 mm 1 m/s 743 mmHg 77%
    04:00 +25°C° 0.1 mm 1 m/s 743 mmHg 76%
    05:00 +26°C° 0.4 mm 1 m/s 743 mmHg 74%
    06:00 +27°C° 0.4 mm 1 m/s 744 mmHg 72%
    07:00 +27°C° 0.4 mm 1 m/s 744 mmHg 71%
    08:00 +29°C° 0.2 mm 1 m/s 744 mmHg 65%
    09:00 +31°C° 0.2 mm 1 m/s 744 mmHg 59%
    10:00 +34°C° 0.2 mm 1 m/s 745 mmHg 53%
    11:00 +34°C° 0.4 mm 1 m/s 744 mmHg 54%
    12:00 +35°C° 0.4 mm 2 m/s 743 mmHg 55%
    13:00 +35°C° 0.4 mm 2 m/s 742 mmHg 55%
    14:00 +34°C° 0.7 mm 2 m/s 742 mmHg 60%
    15:00 +32°C° 0.7 mm 2 m/s 741 mmHg 65%
    16:00 +31°C° 0.7 mm 2 m/s 741 mmHg 70%
    17:00 +30°C° 1 mm 1 m/s 741 mmHg 74%
    18:00 +29°C° 1 mm 1 m/s 742 mmHg 78%
    19:00 +27°C° 1 mm 1 m/s 742 mmHg 82%
    20:00 +27°C° 0.2 mm 1 m/s 743 mmHg 80%
    21:00 +27°C° 0.2 mm 1 m/s 743 mmHg 78%
    22:00 +26°C° 0.2 mm 1 m/s 743 mmHg 77%
    23:00 +26°C° 0.1 mm 1 m/s 743 mmHg 73%

    Mâine, 16 Octombrie, Marţi

    Timp Temperatura Precipitaţii Vânt Presiune Umiditate
    00:00 +26°C° 0.1 mm 1 m/s 743 mmHg 70%
    01:00 +26°C° 0.1 mm 1 m/s 742 mmHg 66%
    02:00 +26°C° 0.1 mm 1 m/s 742 mmHg 66%
    03:00 +25°C° 0.1 mm 1 m/s 742 mmHg 65%
    04:00 +25°C° 0.1 mm 1 m/s 742 mmHg 64%
    05:00 +26°C° 0.1 mm 1 m/s 742 mmHg 64%
    06:00 +27°C° 0.1 mm 1 m/s 743 mmHg 64%
    07:00 +28°C° 0.1 mm 1 m/s 743 mmHg 64%
    08:00 +30°C° 0.2 mm 1 m/s 744 mmHg 60%
    09:00 +32°C° 0.2 mm 1 m/s 744 mmHg 56%
    10:00 +34°C° 0.2 mm 1 m/s 744 mmHg 52%
    11:00 +35°C° 0.2 mm 2 m/s 743 mmHg 52%
    12:00 +35°C° 0.2 mm 2 m/s 742 mmHg 52%
    13:00 +36°C° 0.2 mm 2 m/s 741 mmHg 51%
    14:00 +35°C° 0.1 mm 2 m/s 741 mmHg 55%
    15:00 +35°C° 0.1 mm 2 m/s 740 mmHg 59%
    16:00 +33°C° 0.1 mm 1 m/s 740 mmHg 63%
    17:00 +31°C° 0 mm 1 m/s 740 mmHg 68%
    18:00 +29°C° 0 mm 1 m/s 740 mmHg 74%
    19:00 +28°C° 0 mm 1 m/s 741 mmHg 80%
    20:00 +27°C° 0 mm 1 m/s 741 mmHg 79%
    21:00 +27°C° 0 mm 1 m/s 742 mmHg 78%
    22:00 +26°C° 0 mm 1 m/s 742 mmHg 76%
    23:00 +26°C° 0 mm 1 m/s 742 mmHg 74%

    Poimâine, 17 Octombrie, Miercuri

    Timp Temperatura Precipitaţii Vânt Presiune Umiditate
    00:00 +26°C° 0 mm 1 m/s 742 mmHg 71%
    01:00 +25°C° 0 mm 1 m/s 741 mmHg 68%
    02:00 +25°C° 0.1 mm 1 m/s 741 mmHg 66%
    03:00 +25°C° 0.1 mm 1 m/s 741 mmHg 64%
    04:00 +25°C° 0.1 mm 1 m/s 741 mmHg 62%
    05:00 +26°C° 0 mm 1 m/s 741 mmHg 59%
    06:00 +27°C° 0 mm 1 m/s 742 mmHg 57%
    07:00 +28°C° 0 mm 1 m/s 743 mmHg 55%
    08:00 +30°C° 0 mm 1 m/s 743 mmHg 53%
    09:00 +32°C° 0 mm 1 m/s 743 mmHg 51%
    10:00 +34°C° 0 mm 1 m/s 743 mmHg 48%
    11:00 +36°C° 0 mm 2 m/s 742 mmHg 48%
    12:00 +36°C° 0 mm 2 m/s 741 mmHg 48%
    13:00 +37°C° 0 mm 2 m/s 740 mmHg 48%
    14:00 +36°C° 0.2 mm 2 m/s 740 mmHg 53%
    15:00 +35°C° 0.2 mm 2 m/s 739 mmHg 58%
    16:00 +35°C° 0.2 mm 2 m/s 739 mmHg 63%
    17:00 +32°C° 0.5 mm 2 m/s 739 mmHg 69%
    18:00 +30°C° 0.5 mm 1 m/s 740 mmHg 76%
    19:00 +28°C° 0.5 mm 1 m/s 741 mmHg 82%
    20:00 +28°C° 1.6 mm 1 m/s 741 mmHg 83%
    21:00 +27°C° 1.6 mm 1 m/s 741 mmHg 84%
    22:00 +27°C° 1.6 mm 1 m/s 742 mmHg 85%
    23:00 +27°C° 1.7 mm 1 m/s 741 mmHg 84%

    18 Octombrie, Joi

    Timp Temperatura Precipitaţii Vânt Presiune Umiditate
    00:00 +26°C° 1.7 mm 1 m/s 741 mmHg 83%
    01:00 +26°C° 1.7 mm 1 m/s 741 mmHg 81%
    02:00 +26°C° 0.6 mm 1 m/s 741 mmHg 80%
    03:00 +26°C° 0.6 mm 1 m/s 740 mmHg 79%
    04:00 +26°C° 0.6 mm 1 m/s 740 mmHg 78%
    05:00 +26°C° 0.7 mm 1 m/s 741 mmHg 76%
    06:00 +27°C° 0.7 mm 1 m/s 742 mmHg 74%
    07:00 +28°C° 0.7 mm 1 m/s 742 mmHg 72%
    08:00 +30°C° 0.6 mm 1 m/s 742 mmHg 67%
    09:00 +31°C° 0.6 mm 1 m/s 742 mmHg 63%
    10:00 +34°C° 0.6 mm 2 m/s 743 mmHg 59%
    11:00 +34°C° 0.8 mm 2 m/s 742 mmHg 61%
    12:00 +34°C° 0.8 mm 2 m/s 741 mmHg 62%
    13:00 +34°C° 0.8 mm 3 m/s 740 mmHg 63%
    14:00 +34°C° 0.6 mm 2 m/s 739 mmHg 67%
    15:00 +32°C° 0.6 mm 2 m/s 739 mmHg 70%
    16:00 +31°C° 0.6 mm 2 m/s 739 mmHg 74%
    17:00 +30°C° 0.6 mm 1 m/s 739 mmHg 78%
    18:00 +29°C° 0.6 mm 1 m/s 740 mmHg 83%
    19:00 +28°C° 0.6 mm 1 m/s 741 mmHg 87%
    20:00 +28°C° 1.1 mm 1 m/s 741 mmHg 87%
    21:00 +27°C° 1.1 mm 1 m/s 741 mmHg 87%
    22:00 +27°C° 1.1 mm 1 m/s 742 mmHg 86%
    23:00 +27°C° 0.8 mm 1 m/s 742 mmHg 85%

    19 Octombrie, Vineri

    Timp Temperatura Precipitaţii Vânt Presiune Umiditate
    00:00 +27°C° 0.8 mm 1 m/s 741 mmHg 84%
    01:00 +26°C° 0.8 mm 1 m/s 741 mmHg 84%
    02:00 +26°C° 0.4 mm 1 m/s 741 mmHg 82%
    03:00 +26°C° 0.4 mm 1 m/s 741 mmHg 81%
    04:00 +26°C° 0.4 mm 1 m/s 741 mmHg 80%
    05:00 +26°C° 0.7 mm 1 m/s 741 mmHg 79%
    06:00 +27°C° 0.7 mm 1 m/s 742 mmHg 77%
    07:00 +28°C° 0.7 mm 1 m/s 743 mmHg 76%
    08:00 +29°C° 1 mm 1 m/s 743 mmHg 74%
    09:00 +30°C° 1 mm 1 m/s 743 mmHg 72%
    10:00 +31°C° 1 mm 2 m/s 743 mmHg 70%
    11:00 +31°C° 1.5 mm 2 m/s 742 mmHg 70%
    12:00 +31°C° 1.5 mm 2 m/s 741 mmHg 71%
    13:00 +31°C° 1.5 mm 2 m/s 740 mmHg 72%
    14:00 +31°C° 1.3 mm 2 m/s 740 mmHg 75%
    15:00 +30°C° 1.3 mm 1 m/s 740 mmHg 78%
    16:00 +29°C° 1.3 mm 1 m/s 740 mmHg 81%
    17:00 +28°C° 1 mm 1 m/s 740 mmHg 85%
    18:00 +25°C° 1 mm 0 m/s 741 mmHg 88%
    19:00 +24°C° 1 mm 0 m/s 741 mmHg 92%
    20:00 +24°C° 0.8 mm 0 m/s 741 mmHg 92%
    21:00 +24°C° 0.8 mm 0 m/s 742 mmHg 92%
    22:00 +24°C° 0.8 mm 0 m/s 742 mmHg 92%
    23:00 +24°C° 0.4 mm 0 m/s 741 mmHg 92%

    20 Octombrie, Sâmbătă

    Timp Temperatura Precipitaţii Vânt Presiune Umiditate
    00:00 +24°C° 0.4 mm 0 m/s 741 mmHg 92%
    01:00 +23°C° 0.4 mm 0 m/s 740 mmHg 92%
    02:00 +23°C° 0.3 mm 0 m/s 740 mmHg 91%
    03:00 +25°C° 0.3 mm 1 m/s 740 mmHg 91%
    04:00 +25°C° 0.3 mm 1 m/s 740 mmHg 91%
    05:00 +26°C° 0.2 mm 1 m/s 741 mmHg 88%
    06:00 +26°C° 0.2 mm 1 m/s 741 mmHg 85%
    07:00 +27°C° 0.2 mm 1 m/s 742 mmHg 83%
    08:00 +29°C° 0.2 mm 1 m/s 742 mmHg 76%
    09:00 +30°C° 0.2 mm 1 m/s 742 mmHg 70%
    10:00 +32°C° 0.2 mm 2 m/s 742 mmHg 63%
    11:00 +32°C° 0.7 mm 2 m/s 741 mmHg 63%
    12:00 +34°C° 0.7 mm 2 m/s 740 mmHg 62%
    13:00 +34°C° 0.7 mm 2 m/s 740 mmHg 61%
    14:00 +32°C° 1 mm 2 m/s 739 mmHg 65%
    15:00 +32°C° 1 mm 2 m/s 739 mmHg 70%
    16:00 +31°C° 1 mm 2 m/s 739 mmHg 74%
    17:00 +30°C° 0.7 mm 1 m/s 739 mmHg 79%
    18:00 +28°C° 0.7 mm 1 m/s 740 mmHg 84%
    19:00 +27°C° 0.7 mm 1 m/s 740 mmHg 89%
    20:00 +27°C° 0.9 mm 1 m/s 741 mmHg 90%
    21:00 +27°C° 0.9 mm 1 m/s 741 mmHg 90%
    22:00 +26°C° 0.9 mm 1 m/s 741 mmHg 91%
    23:00 +26°C° 0.7 mm 1 m/s 741 mmHg 91%
    Arată mai mult